Starlink 35597

operational
NORAD ID: 66493 Int'l Des: 2025-263 Owner: SPXS Country: US Constellation: starlink
NOTLE

About Starlink 35597

Description loading...

Live Position

Loading 3D Globe...

Upcoming Passes

Altitude History

Altitude vs Time

uPlot chart will show altitude changes over time

Two-Line Element Set

1 66493U 25263J 25341.00002315 -.02044478 00000-0 -31933-1 0 9993
2 66493 43.0000 158.7256 0001547 268.9866 340.0497 15.56104323 4712
Epoch: Dec 7, 2025 • Age: 14 hours

Current Status

Altitude 417.6 km
Velocity 7.66 km/s
Sub-Earth Point -41.36°S, 120.05°E
Launch Date Nov 15, 2025
Age 22 days
Type internet

Technical Details

Classification Payload
Mass 575.00 kg
Dry Mass 530.00 kg
Total Mass 575.00 kg
Length 0.30 m
Diameter 4.10 m
Span 29.00 m
Shape Box + pan
Manufacturer SPXS
Bus Type Starlink V2MO
Phase Status In Orbit
Owner/State SPXS/US

Large Constellations

Loading constellations...